OPS 4682 DEB, 38450

Orbit data source: Space-Track

OPS 4682 DEB, 38450 is space debris in LEO originally from a launch on Sat, 03 Apr 1965 UTC launched from the Air Force Western Test Range (AFWTR). Debris objects in space refer to the collection of defunct objects orbiting the Earth. Examples of debris include non-operational satellites, rocket bodies, and fragments generated from explosions, collisions, or faulty payload assembly.

Loading next visibility...
Identifier
38450, 1965-027FF
Orbit
LEO
Country
Flag of USUS
Related business
Manufacturer
Unknown
Mission
Spacecraft
Bus & Motor
Unknown
Mass
Unknown
Launch date (UTC)
1965-04-03 (61 years ago)
Launch vehicle
Unknown
Launch site
Air Force Western Test Range (AFWTR)
Object type
Payload
Rocket body
Debris
Shape & HBR
Unknown shape, 0.1 m
Radar Cross Section
Small (<0.1 m²)

Expand to show TLE details & history
Last TLE update: 1 day ago

TLE from 1 day ago
0 OPS 4682 DEB
1 38450U 65027FF  25349.29678540 -.00000337  00000-0 -11375-2 0  9998
2 38450  90.2358   3.2836 0026730  17.1990 343.0032 13.00386053608217
Epoch: 2025-12-15T07:07Z
TLE epoch observation values (Epoch: 2025-12-15T07:07:22.258Z)
Latitude
-0.00003°
Longitude
172.24348°
Altitude
1,243.933 km
Speed
7.242 km/s
True Right ascension
00h 13m 08s
True Declination
0° 00' 00"
Sunlit
Object was in daylight at epoch
Visualization orbit readout
Latitude
Unknown
Longitude
Unknown
Altitude
Unknown
Speed
Unknown
Apparent Right ascension
Unknown
Apparent Declination
Unknown
Sunlit
N/A
Visualization observer readout
Local Sidereal Time
05:21:15
Azimuth
Unknown
Elevation
Unknown
Doppler factor
Unknown
Orbital elements
Apogee altitude
1,278.111 km
Perigee altitude
1,237.29 km
Semi-major axis
7,635.838 km
Eccentricity
0.00267
Inclination
90.2358°
RAAN
3.2836°
Arg. of periapsis
17.199°
True anomaly
342.91338°
Mean anomaly
343.0032°
Eccentric anomaly
342.95832°
Mean motion
3.25281 °/min
Orbital period
110.67 mins
BSTAR
-0.0011375
Loading maneuver chart data...
Computing Atmospheric mass density...
Loading historical data...
Loading historical data...
Loading historical data...
Loading historical data...
Loading historical data...
Loading historical data...
Loading historical data...

Documentation

Showing up to 5 results
|